Albany, NY
on Monday, December 11, 2017

Monday
       
Previous Day Next Day
Daily Summary
 ActualAverageRecord
Temperature
Mean Temperature °F °C 30°F -1°C  
Max Temperature 34°F 1°C 37°F 3°C 61°F 16°C (1952)
Min Temperature 24°F -4°C 23°F -5°C -8°F -22°C (1988)
Degree Days
Heating Degree Days 36 35  
Month to date heating degree days 341 362  
Since 1 July heating degree days 1455 1766  
Cooling Degree Days 0 0  
Month to date cooling degree days 0 0  
Year to date cooling degree days 714 598  
Moisture
Dew Point 20°F -7°C   
Average Humidity 68    
Maximum Humidity 81    
Minimum Humidity 54    
Precipitation
Precipitation T in / T cm 0.10 in / 2.54 cm 3.16 in / 8.03 cm (1952)
Month to date precipitation 0.63 1.15  
Year to date precipitation 38.86 37.57  
Snow
Snow T in / T cm 0.40 in / 1.02 cm 4.30 in / 10.92 cm (1970)
Month to date snowfall 3.4 3.9  
Since 1 July snowfall 3.4 7.0  
Snow Depth 1.00 in / 2.54 cm   
Wind
Wind Speed 5 mph / 9 km/h   
Max Wind Speed 16 mph / 26 km/h   
Max Gust Speed 20 mph / 32 km/h   
Visibility 10 miles / 16 kilometers   
Events Snow   

Key: T is trace of precipitation, MM is missing value
Source: NWS Daily Summary
Time(EST)TemperatureDew PointHumidity Pressure Visibility Wind DirectionWind SpeedGust SpeedPrecipitationEvents Conditions
12:51 AM 32.0°F 0.0°C 21.9°F -5.6°C 66% 29.93 in / 1013.5 hPa 10.0 miles / 16.1 kilometers SSW 9.2 mph / 14.8 km/h - N/A   Overcast
1:51 AM 32.0°F 0.0°C 19.9°F -6.7°C 61% 29.93 in / 1013.3 hPa 10.0 miles / 16.1 kilometers South 8.1 mph / 13.0 km/h - N/A   Overcast
2:51 AM 30.9°F -0.6°C 21.0°F -6.1°C 67% 29.92 in / 1013.2 hPa 10.0 miles / 16.1 kilometers South 3.5 mph / 5.6 km/h - N/A   Overcast
3:51 AM 30.0°F -1.1°C 21.0°F -6.1°C 69% 29.91 in / 1012.9 hPa 10.0 miles / 16.1 kilometers South 3.5 mph / 5.6 km/h - N/A   Overcast
4:51 AM 30.9°F -0.6°C 19.9°F -6.7°C 64% 29.93 in / 1013.3 hPa 10.0 miles / 16.1 kilometers SSE 4.6 mph / 7.4 km/h - N/A   Overcast
5:51 AM 30.0°F -1.1°C 21.0°F -6.1°C 69% 29.94 in / 1013.8 hPa 10.0 miles / 16.1 kilometers South 5.8 mph / 9.3 km/h - N/A   Overcast
6:51 AM 28.9°F -1.7°C 21.0°F -6.1°C 72% 29.96 in / 1014.3 hPa 10.0 miles / 16.1 kilometers South 5.8 mph / 9.3 km/h - N/A   Partly Cloudy
7:51 AM 27.0°F -2.8°C 21.0°F -6.1°C 78% 29.98 in / 1015.0 hPa 10.0 miles / 16.1 kilometers Calm Calm - N/A   Mostly Cloudy
8:51 AM 30.0°F -1.1°C 21.9°F -5.6°C 72% 29.99 in / 1015.6 hPa 10.0 miles / 16.1 kilometers SSW 3.5 mph / 5.6 km/h - N/A   Mostly Cloudy
9:51 AM 33.1°F 0.6°C 21.0°F -6.1°C 61% 30.01 in / 1016.0 hPa 10.0 miles / 16.1 kilometers SW 4.6 mph / 7.4 km/h - N/A   Mostly Cloudy
10:51 AM 34.0°F 1.1°C 21.0°F -6.1°C 59% 30.01 in / 1016.0 hPa 10.0 miles / 16.1 kilometers WSW 8.1 mph / 13.0 km/h - N/A   Mostly Cloudy
11:51 AM 33.1°F 0.6°C 21.0°F -6.1°C 61% 29.99 in / 1015.6 hPa 10.0 miles / 16.1 kilometers WNW 8.1 mph / 13.0 km/h - 0.00 in / 0.0 cm Snow Light Snow
12:51 PM 33.1°F 0.6°C 21.9°F -5.6°C 64% 29.99 in / 1015.5 hPa 10.0 miles / 16.1 kilometers NW 11.5 mph / 18.5 km/h - 0.00 in / 0.0 cm Snow Light Snow
1:51 PM 33.1°F 0.6°C 19.0°F -7.2°C 56% 29.99 in / 1015.6 hPa 10.0 miles / 16.1 kilometers NW 5.8 mph / 9.3 km/h - 0.00 in / 0.0 cm   Overcast
2:51 PM 32.0°F 0.0°C 17.1°F -8.3°C 54% 30.00 in / 1015.7 hPa 10.0 miles / 16.1 kilometers NNW 13.8 mph / 22.2 km/h - N/A   Mostly Cloudy
3:51 PM 30.9°F -0.6°C 18.0°F -7.8°C 59% 30.01 in / 1016.3 hPa 10.0 miles / 16.1 kilometers NNW 8.1 mph / 13.0 km/h - N/A   Mostly Cloudy
4:51 PM 30.0°F -1.1°C 18.0°F -7.8°C 61% 30.02 in / 1016.6 hPa 10.0 miles / 16.1 kilometers NNW 9.2 mph / 14.8 km/h - N/A   Mostly Cloudy
5:51 PM 30.0°F -1.1°C 18.0°F -7.8°C 61% 30.02 in / 1016.6 hPa 10.0 miles / 16.1 kilometers NNW 6.9 mph / 11.1 km/h - N/A   Overcast
6:51 PM 30.0°F -1.1°C 17.1°F -8.3°C 59% 30.00 in / 1015.9 hPa 10.0 miles / 16.1 kilometers North 3.5 mph / 5.6 km/h - N/A   Overcast
7:51 PM 30.0°F -1.1°C 18.0°F -7.8°C 61% 30.01 in / 1016.0 hPa 10.0 miles / 16.1 kilometers Calm Calm - N/A   Overcast
8:51 PM 28.9°F -1.7°C 18.0°F -7.8°C 64% 30.00 in / 1015.7 hPa 10.0 miles / 16.1 kilometers South 3.5 mph / 5.6 km/h - N/A   Overcast
9:51 PM 30.0°F -1.1°C 19.0°F -7.2°C 64% 29.98 in / 1015.1 hPa 10.0 miles / 16.1 kilometers South 3.5 mph / 5.6 km/h - N/A   Overcast
10:51 PM 30.0°F -1.1°C 19.0°F -7.2°C 64% 29.96 in / 1014.4 hPa 10.0 miles / 16.1 kilometers Calm Calm - N/A   Overcast
11:51 PM 28.9°F -1.7°C 19.0°F -7.2°C 67% 29.93 in / 1013.4 hPa 10.0 miles / 16.1 kilometers Calm Calm - 0.00 in / 0.0 cm Snow Light Snow